Погода в Казанлыке

Болгария     42°37′09″N   25°23′35″E
темп.,
°C
ветер,
м/с
пор.,
м/с
влажн.,
%
обл.,
%
осадки,
мм/ч
давл.,
гПа
погр.,
м
14 августа, вс
вс1400:00+19с227797 1.0 101033
03:00+18сз228259 1.9 100939
06:00+18ссз218055 0.6 100813
09:00+22сз116131 0.9 1008301
12:00+27юв3339100 0.1 10071809
15:00+25ссз545080 0.6 10061278
18:00+22зсз3566100 1.4 1006451
21:00+17с2490100 3.7 1007144
15 августа, пн
пн1500:00+16ссз3389100 1.5 100857
03:00+15сз3385100 1.5 100741
06:00+16ссз1183100 0.0 100714
09:00+20зсз116836 0.0 1008313
12:00+26з224557 0.3 10081691
15:00+29всв133674 0.5 10072279
18:00+27ю224069 0.0 10061235
21:00+23зюз015139 0.0 100811
16 августа, вт
вт1600:00+20ссз22601 0.0 100911
03:00+19ссз22620 0.0 100911
06:00+19сз22630 0.0 100911
09:00+25з224316 0.0 1010272
12:00+31ююз33296 0.0 10092700
15:00+32сз342599 0.0 10082856
18:00+32св232685 0.0 10081970
21:00+21ссз347012 0.4 101171
17 августа, ср
ср1700:00+19сз227591 1.3 101224
03:00+19ссз32710 1.4 101121
06:00+18ссз22685 0.0 101113
09:00+24ссз11470 0.0 1012193
12:00+32зсз23270 0.0 10112636
15:00+34ссв232177 0.0 10093520
18:00+30ссв352618 0.0 1010452
21:00+25ссз22383 0.0 101112
18 августа, чт
чт1800:00+23ссз22422 0.0 101213
03:00+22сз22430 0.0 101112
06:00+21сз22460 0.0 101112
09:00+28ссз23330 0.0 1012320
12:00+34с55220 0.0 10112799
15:00+35с65200 0.0 10103046
18:00+34ссв55210 0.0 10102222
21:00+27ссв22350 0.0 101011